Dewpoint
48 46 42 35 33 32 33 33 33 35 34 34 38 38 38 38 37 37 36 35 34 34
45 43 38 40 35 34 34 33 34 34 36 35 33 34 36 38 37 37 36 35 34 33
43 43 41 36 36 37 37 33 35 36 34 33 33 34 34 35 37 36 36 34 32 33
41 40 40 38 38 34 34 36 36 34 33 32 32 33 33 35 35 33 31 32 32 32
40 40 37 34 33 34 34 35 33 34 32 32 32 33 32 30 29 30 31 31 31 31
37 33 32 33 33 34 34 34 33 32 32 32 33 33 32 31 30 30 30 31 30 29
34 33 33 34 34 34 34 33 32 33 33 33 33 32 32 31 30 30 30 30 30 29
35 35 35 37 35 35 34 33 32 33 33 33 34 31 32 31 30 29 29 29 28 28
39 39 37 35 35 35 34 33 32 32 33 35 33 33 34 33 30 29 27 26 25 23
40 38 36 34 32 32 32 34 35 36 36 35 33 34 35 35 30 28 27 25 24 22
35 33 34 34 34 35 36 38 38 37 34 32 30 33 34 34 31 27 26 24 24 23
35 35 36 36 37 38 38 38 36 34 33 31 30 32 33 33 29 25 24 23 24 23
37 37 37 38 38 38 37 34 34 30 30 30 29 31 32 33 26 25 25 24 25 29
40 39 39 38 37 37 36 32 29 28 28 28 29 29 32 33 28 26 25 25 25 25
Lifted_Index
-2 -2 -1 -1 -1 -0 0 1 3 5 6 5 6 9 12 13 13 13 12 12 12 12
-2 -2 -2 -1 -1 -0 0 2 4 6 6 6 8 10 12 13 13 13 12 12 12 12
-2 -2 -2 -1 -1 -0 1 3 5 7 7 8 10 12 13 13 13 13 12 12 12 12
-2 -2 -1 -1 -0 1 2 5 7 8 9 11 12 12 12 12 13 12 12 12 12 12
-1 -1 -0 0 1 2 4 6 8 9 10 11 11 11 11 12 12 12 11 11 11 11
0 0 1 1 3 4 6 7 8 9 10 11 10 10 11 11 11 11 11 10 10 10
1 1 2 3 4 5 7 8 9 10 10 10 9 9 11 11 11 11 10 10 9 9
1 2 2 3 5 6 7 9 10 10 11 10 9 9 10 11 11 10 10 9 8 8
1 2 3 4 5 7 8 9 10 11 11 10 9 9 10 11 10 9 9 8 7 6
2 2 3 4 6 7 9 10 10 11 10 9 9 10 10 10 10 9 8 7 6 5
2 3 4 6 8 9 10 10 10 10 9 9 9 10 11 10 10 9 8 6 5 5
4 5 6 7 8 9 10 10 9 9 9 9 10 11 11 10 9 8 7 6 5 5
7 7 8 8 8 9 9 9 9 9 10 11 11 11 11 10 9 7 6 5 5 5
8 8 8 8 8 9 9 10 10 11 11 11 11 11 10 9 8 7 6 5 5 5